Regional Weather Roundup
Issued by NWS Green Bay, WI

Home | Current Version | Previous Version | Graphics & Text | Print | Product List | Glossary Off
Versions: 1 2 3 4 5 6 7 8 9 10 11 12 13 14 15 16 17 18 19 20 21 22 23 24 25 26 27 28 29 30 31 32 33 34 35 36 37 38 39 40 41 42 43 44 45 46 47 48 49 50

000
ASUS43 KGRB 240300
RWRGRB

NORTH-CENTRAL AND NORTHEAST WISCONSIN REGIONAL WEATHER ROUNDUP
NATIONAL WEATHER SERVICE GREEN BAY WI
1000 PM CDT SAT JUL 23 2016

WIZ005-009-010>012-018-019-240400-
NORTH CENTRAL WISCONSIN

CITY           SKY/WX    TMP DP  RH WIND       PRES   REMARKS
IRONWOOD       CLOUDY    73  70  88 S6        29.83F
MANITOWISH WTR NOT AVBL
ARBOR VITAE    NOT AVBL
EAGLE RIVER    NOT AVBL
LAND O LAKES   NOT AVBL
RHINELANDER    HVY RAIN  71  69  93 SW5       29.92R FOG
PHILLIPS       NOT AVBL
ANTIGO         NOT AVBL
TOMAHAWK       NOT AVBL
MERRILL        NOT AVBL
$$

WIZ013-073-240400-
NORTHEAST WISCONSIN

CITY           SKY/WX    TMP DP  RH WIND       PRES   REMARKS
IRON MOUNTAIN  CLOUDY    74  63  68 SE5       29.89F
MARINETTE      CLOUDY    76  65  68 S7        29.91R
$$

WIZ017-030-035>037-045-240400-
CENTRAL WISCONSIN

CITY           SKY/WX    TMP DP  RH WIND       PRES   REMARKS
MEDFORD        NOT AVBL
WAUSAU         LGT RAIN  70  67  90 E6        29.87S
MOSINEE        LGT RAIN  70  68  94 SE6       29.89S
MARSHFIELD     MOCLDY    70  66  87 CALM      29.86F
WISC RAPIDS    CLOUDY    71  67  87 S5        29.88S
STEVENS POINT  NOT AVBL
WAUPACA        NOT AVBL
SHAWANO        NOT AVBL
CLINTONVILLE   NOT AVBL
WAUTOMA        CLOUDY    71  70  96 SE9       29.88F
$$

WIZ038-039-048-051-240400-
FOX VALLEY

CITY           SKY/WX    TMP DP  RH WIND       PRES   REMARKS
NWS GREEN BAY  CLOUDY    75  75 100 S6        29.90R
APPLETON       MOCLDY    73  70  88 VRB6      29.90S
OSHKOSH        CLOUDY    73  70  90 S9        29.90S
FOND DU LAC    CLOUDY    74  71  91 S8        29.91F
$$

WIZ022-050-052-240400-
EAST CENTRAL WISCONSIN

CITY           SKY/WX    TMP DP  RH WIND       PRES   REMARKS
EPHRAIM        MOCLDY    71  63  74 SE6       29.90F
WASHINGTON ISL NOT AVBL
STURGEON BAY   CLOUDY    73  66  78 SE8       29.91S
MANITOWOC      NOT AVBL
SHEBOYGAN      LGT RAIN  74  71  91 S10       29.92F
$$

LMZ563-521-522-541>543-240400-
LAKESHORE

STATION/POSITION TIME  TEMP    WIND        PRES    VSBY  WAVE
                       AIR SEA DIR/SP/G                  HT/PER
                 (UTC) (F)     (DEG/KT/KT) (MB)    (MI)  (FT/S)
SHEBOYGAN LKSHOR 0200   75     180/  9/ 10 1013.1R
KEWAUNEE LKSHORE 0200   66                   N/A
NORTHPORT PIER   0200   74     150/  5/  7 1012.9R
N MID LAKE BUOY  0150   73 73  120/  6/  6 1012.0F         0
S GREEN BAY BUOY 0230   74 75  140/ 10/ 12   N/A
CHAMBERS ISLAND  0200   76     130/  4/  9 1012.2
MENOMINEE LKSHOR 0200   76                   N/A
$$




USA.gov is the U.S. government's official web portal to all federal, state and local government web resources and services.